Weather History for KBGM - October, 2011

Change the Weather History Date:

Saturday, October 29, 2011

  Actual Average Record
Temperature  
Mean Temperature 33 °F 44 °F  
Max Temperature 35 °F 52 °F 70 °F (1989)
Min Temperature 30 °F 37 °F 22 °F (1965)
Degree Days  
Heating Degree Days 32 21  
Month to date heating degree days 421 472  
Since 1 July heating degree days 559 729  
Cooling Degree Days 0 0  
Month to date cooling degree days 0 0  
Year to date cooling degree days 527 379  
Moisture  
Dew Point 29 °F    
Average Humidity 84    
Maximum Humidity 92    
Minimum Humidity 75    
Precipitation  
Precipitation 0.10 in 0.10 in 1.18 in (1973)
Month to date precipitation 4.09 3.12  
Year to date precipitation 61.86 32.96  
Snow  
Snow 0.70 in 0.00 in 0.70 in (2011)
Month to date snowfall 2.6 0.8  
Since 1 July snowfall 2.6 0.8  
Since 1 September snowfall 2.6 0.8  
Snow Depth 0.00 in    
Sea Level Pressure  
Sea Level Pressure 30.08 in    
Wind  
Wind Speed 6 mph (NE)    
Max Wind Speed 12 mph    
Max Gust Speed 17 mph    
Visibility 6 miles    
Events Fog , Snow    
T = Trace of Precipitation, MM = Missing Value Source: NWS Daily Summary

Daily Weather History Graph

Daily Weather History Graph

Search for Another Location

Airport or City:

Trip Planner

Search our weather history database for the weather conditions in past years. The results will help you decide how hot, cold, wet, or windy it might be!

Date:

Astronomy

Oct. 29, 2011 Rise Set
Actual Time 7:32 AM EDT 6:01 PM EDT
Civil Twilight 7:03 AM EDT 6:30 PM EDT
Nautical Twilight 6:31 AM EDT 7:03 PM EDT
Astronomical Twilight 5:58 AM EDT 7:36 PM EDT
Moon 10:56 AM EDT (10/29) 8:19 PM EDT (10/29)
Length of Visible Light 11h 26m
Length of Day
10h 28m
Waxing Crescent, 11% of the Moon is Illuminated
Oct 29
Waxing Crescent
Nov 2
First Quarter
Nov 10
Full
Nov 18
Last Quarter
Nov 25
New

Hourly Weather History & Observations

Time (EDT) Temp. Windchill Dew Point Humidity Pressure Visibility Wind Dir Wind Speed Gust Speed Precip Events Conditions
12:53 AM 34.0 °F 31.0 °F 28.0 °F 79% 30.22 in 10.0 mi East 3.5 mph - N/A   Clear
1:53 AM 33.8 °F 30.8 °F 28.4 °F 81% 30.18 in 10.0 mi ESE 3.5 mph - N/A   Mostly Cloudy
2:53 AM 33.1 °F 26.9 °F 28.9 °F 85% 30.21 in 10.0 mi East 6.9 mph - N/A   Overcast
3:53 AM 33.1 °F 28.7 °F 28.9 °F 85% 30.21 in 10.0 mi East 4.6 mph - N/A   Overcast
4:53 AM 33.1 °F 28.7 °F 28.9 °F 85% 30.20 in 10.0 mi East 4.6 mph - N/A   Overcast
5:53 AM 33.1 °F - 28.9 °F 85% 30.20 in 10.0 mi Calm Calm - N/A   Overcast
6:53 AM 32.0 °F 26.4 °F 28.9 °F 88% 30.19 in 10.0 mi NE 5.8 mph - N/A   Overcast
7:53 AM 30.9 °F 26.2 °F 28.9 °F 92% 30.18 in 10.0 mi ENE 4.6 mph - N/A   Overcast
8:53 AM 32.0 °F 26.4 °F 28.9 °F 88% 30.16 in 10.0 mi NE 5.8 mph - N/A   Mostly Cloudy
9:53 AM 33.1 °F 27.7 °F 30.0 °F 89% 30.15 in 10.0 mi ENE 5.8 mph - N/A   Overcast
10:53 AM 33.1 °F 26.9 °F 30.0 °F 89% 30.12 in 10.0 mi NE 6.9 mph - N/A   Overcast
11:53 AM 34.0 °F 29.8 °F 28.9 °F 82% 30.14 in 10.0 mi ENE 4.6 mph - N/A   Overcast
12:53 PM 35.1 °F 32.2 °F 28.9 °F 78% 30.09 in 8.0 mi ENE 3.5 mph - 0.00 in   Overcast
1:53 PM 35.1 °F 30.1 °F 28.0 °F 76% 30.07 in 10.0 mi Variable 5.8 mph - N/A   Overcast
2:28 PM 33.8 °F 27.0 °F 26.6 °F 75% 30.02 in 2.0 mi ENE 8.1 mph - 0.00 in Snow Light Snow
2:35 PM 33.8 °F 27.0 °F 28.4 °F 81% 30.01 in 1.2 mi East 8.1 mph - 0.00 in Snow Light Snow
2:53 PM 33.1 °F 26.1 °F 28.9 °F 85% 30.06 in 1.0 mi ENE 8.1 mph - 0.00 in Snow Light Snow
3:00 PM 32.0 °F 24.8 °F 28.4 °F 87% 30.01 in 0.5 mi ENE 8.1 mph - 0.01 in Fog , Snow Snow
3:18 PM 32.0 °F 26.4 °F 28.4 °F 87% 30.00 in 0.8 mi ENE 5.8 mph - 0.01 in Snow Light Snow
3:27 PM 32.0 °F 24.2 °F 28.4 °F 87% 30.00 in 0.5 mi ENE 9.2 mph - 0.02 in Fog , Snow Snow
3:53 PM 30.9 °F 25.2 °F 28.9 °F 92% 30.07 in 0.5 mi ENE 5.8 mph - 0.03 in Snow Light Snow
4:19 PM 30.2 °F 22.6 °F 28.4 °F 93% 30.03 in 1.0 mi NE 8.1 mph - 0.01 in Snow Light Snow
4:26 PM 30.2 °F 25.4 °F 28.4 °F 93% 30.03 in 0.8 mi NE 4.6 mph - 0.01 in Snow Light Snow
4:35 PM 30.2 °F 23.4 °F 28.4 °F 93% 30.03 in 0.8 mi ENE 6.9 mph - 0.02 in Snow Light Snow
4:53 PM 30.9 °F 22.8 °F 28.0 °F 89% 30.08 in 0.5 mi NE 9.2 mph - 0.02 in Fog , Snow Snow
5:05 PM 30.2 °F 22.6 °F 28.4 °F 93% 30.03 in 0.5 mi NE 8.1 mph - 0.01 in Fog , Snow Snow
5:45 PM 30.2 °F 21.3 °F 28.4 °F 93% 30.01 in 0.8 mi NNE 10.4 mph - 0.04 in Snow Light Snow
5:53 PM 30.0 °F 21.1 °F 28.0 °F 92% 30.07 in 1.0 mi NNE 10.4 mph - 0.04 in Snow Light Snow
6:32 PM 30.2 °F 22.6 °F 28.4 °F 93% 30.02 in 2.5 mi NNE 8.1 mph - 0.00 in Snow Light Snow
6:46 PM 30.2 °F 22.6 °F 28.4 °F 93% 30.01 in 2.5 mi NNE 8.1 mph - 0.00 in Snow Light Snow
6:53 PM 30.0 °F 22.4 °F 28.0 °F 92% 30.07 in 2.5 mi NNE 8.1 mph - 0.01 in Snow Light Snow
7:12 PM 30.2 °F 23.4 °F 28.4 °F 93% 30.02 in 3.0 mi North 6.9 mph - 0.00 in Snow Light Snow
7:26 PM 30.2 °F 22.6 °F 28.4 °F 93% 30.02 in 4.0 mi NNW 8.1 mph - 0.00 in Snow Light Snow
7:53 PM 30.2 °F 22.6 °F 28.4 °F 93% 30.01 in 4.0 mi NNW 8.1 mph - N/A Snow Light Snow
8:04 PM 30.2 °F 22.6 °F 28.4 °F 93% 30.01 in 8.0 mi NNW 8.1 mph - 0.00 in   Overcast
8:53 PM 30.9 °F 25.2 °F 28.9 °F 92% 30.06 in 10.0 mi NNW 5.8 mph - 0.00 in   Overcast
9:53 PM 30.0 °F 25.2 °F 28.9 °F 96% 30.05 in 10.0 mi NW 4.6 mph - N/A   Overcast
10:53 PM 30.9 °F 26.2 °F 28.9 °F 92% 30.05 in 10.0 mi NNW 4.6 mph - N/A   Overcast
11:48 PM 30.2 °F 24.3 °F 28.4 °F 93% 29.99 in 10.0 mi NNW 5.8 mph - N/A   Mostly Cloudy
11:53 PM 30.9 °F 25.2 °F 28.0 °F 89% 30.04 in 10.0 mi NNW 5.8 mph - N/A   Mostly Cloudy